Location: ??????????
(54.8537°N, 38.8755°E)
Time: 03:17:23
(UTC+00:00)

Vanguard 2 Rocket - Pass Details

Date: 17 September 2024
Orbit: 553 x 3298 km, 32.9° (Epoch: 10 October)

Event Time Altitude Azimuth Distance (km) Brightness Sun altitude
Rises 00:41:06 0° 241° (WSW) 5,004 - -19.6°
Reaches altitude 10° 00:44:31 10° 231° (SW) 4,380 - -19.2°
Exits shadow 00:48:15 21° 215° (SW) 3,935 9.6 -18.7°
Maximum altitude 00:54:57 30° 177° (S) 3,912 9.8 -17.9°
Drops below altitude 10° 01:09:22 10° 127° (SE) 6,107 11.4 -16.1°
Sets 01:15:20 0° 118° (ESE) 7,259 12.0 -15.4°
